Regional Weather Roundup
Issued by NWS

Home | Current Version | Previous Version | Text Only | Print | Product List | Glossary Off
Versions: 1 2 3 4 5 6 7 8 9 10 11 12 13 14 15 16 17 18 19 20 21 22 23 24 25 26 27 28 29 30 31 32 33 34 35 36 37 38 39 40 41 42 43 44 45 46 47 48 49 50

921
ASUS43 KIND 201209
RWRIN

WEATHER ROUNDUP FOR INDIANA
NATIONAL WEATHER SERVICE INDIANAPOLIS IN
700 AM EST SAT JAN 20 2018

NOTE: "FAIR" INDICATES FEW OR NO CLOUDS BELOW 12,000 FEET WITH NO
SIGNIFICANT WEATHER AND/OR OBSTRUCTIONS TO VISIBILITY.

* - STATION DOES NOT REPORT WEATHER SUCH AS PRECIPITATION OR FOG.

+ - STATION NOT QUALITY CONTROLLED BY THE NATIONAL WEATHER SERVICE.
    USE DATA WITH CAUTION...ESPECIALLY DEWPOINT AND RELATIVE
    HUMIDITY OBSERVATIONS.

INZ001>003-010>013-019-020-201300-
NORTHWEST INDIANA

CITY           SKY/WX    TMP DP  RH WIND       PRES   REMARKS
GARY /AIRPORT/ MOCLDY    34  27  75 SW12      29.89R WCI  25
KNOX *+        FAIR      32  28  86 SW8       29.91R WCI  25
LA PORTE +     FAIR      27  24  87 SW6       29.90R WCI  21
6HR MIN TEMP:  27; 6HR MAX TEMP:  33;

MICHIGAN CITY+ FAIR      32  27  80 S8        29.89S WCI  25
MONTICELLO +   FAIR      31  24  77 SW10      29.94R WCI  22
6HR MIN TEMP:  30; 6HR MAX TEMP:  33;

RENSSELAER +   FAIR      32  27  80 S12       29.93R WCI  23
VALPARAISO     FAIR      31  26  82 S5        29.90R WCI  26
6HR MIN TEMP:  31; 6HR MAX TEMP:  36;


$$

LMZ046-743>745-201300-
SOUTHERN LAKE MICHIGAN

STATION/POSITION TIME  TEMP    WIND        PRES    WAVE
                       AIR SEA DIR/SP/G            HT
                 (UTC) (F)     (DEG/KT/KT) (MB)    (FT)
BURNS HARBOR     1140   36     190/ 18/ 28 1012.5R
MICHIGAN CITY    1140   36     190/ 12/ 15   N/A

$$

INZ004-005-014>016-021>024-201300-
NORTH CENTRAL INDIANA

CITY           SKY/WX    TMP DP  RH WIND       PRES   REMARKS
GOSHEN         FAIR      30  24  78 SW13      29.89S WCI  20
6HR MIN TEMP:  30; 6HR MAX TEMP:  33;

LOGANSPORT +   FAIR      32  25  74 SW14      29.95R WCI  22
PERU/GRISSOM   FAIR      31  26  84 SW15      29.94R WCI  20
6HR MIN TEMP:  31; 6HR MAX TEMP:  33;

ROCHESTER +    FAIR      34  28  80 SW7       29.93R WCI  28
SOUTH BEND     FAIR      30  25  81 SW14      29.89R WCI  19
6HR MIN TEMP:  30; 6HR MAX TEMP:  33;

WARSAW +       FAIR      32  27  80 SW7       29.91S WCI  26

$$

INZ006>009-017-018-025>027-201300-
NORTHEAST INDIANA

CITY           SKY/WX    TMP DP  RH WIND       PRES   REMARKS
AUBURN +       FAIR     N/A N/A N/A SW8G17    29.92R
FORT WAYNE     FAIR      32  25  75 SW13      29.94R WCI  22
6HR MIN TEMP:  32; 6HR MAX TEMP:  35;

HUNTINGTON +   FAIR      32  24  72 SW8       29.95R WCI  24
6HR MIN TEMP:  31; 6HR MAX TEMP:  33;

KENDALLVILLE + FAIR      32  25  76 SW13      29.90R WCI  22

$$

INZ028-029-035-036-043>045-051>053-201300-
WEST CENTRAL INDIANA

CITY           SKY/WX    TMP DP  RH WIND       PRES   REMARKS
CRAWFORDSVL +  FAIR      30  23  77 MISG      29.97R
6HR MIN TEMP:  29; 6HR MAX TEMP:  32;

GREENCASTLE +  FAIR      32  21  64 SW6       30.01R WCI  26
LAFAYETTE      FAIR      32  25  75 SW8       29.96R WCI  25
6HR MIN TEMP:  32; 6HR MAX TEMP:  33;

TERRE HAUTE    FAIR      31  21  66 S7        30.03R WCI  24
6HR MIN TEMP:  27; 6HR MAX TEMP:  33;


$$

INZ030>032-037>040-046>048-054>057-064-065-201300-
CENTRAL INDIANA

CITY           SKY/WX    TMP DP  RH WIND       PRES   REMARKS
COLUMBUS       CLEAR     32  16  51 S9        30.05  WCI  24
FISHERS *+     FAIR      32  27  80 SW10      30.00R WCI  24
FRANKFORT +    FAIR      33  27  77 SW12      29.98R WCI  25
6HR MIN TEMP:  33; 6HR MAX TEMP:  35;

GREENWOOD *+   FAIR      35  23  62 SW10      30.01S WCI  28
INDIANAPOLIS   FAIR      34  23  64 SW14      30.00S WCI  25
6HR MIN TEMP:  33; 6HR MAX TEMP:  36;

-EAGLE CREEK   FAIR      33  22  63 SW7       29.99S WCI  27
6HR MIN TEMP:  33; 6HR MAX TEMP:  36;

MARION +       FAIR      31  24  76 SW13      29.97R WCI  21
MT COMFORT *+  FAIR      30  25  80 S7        30.00S WCI  23
SHELBYVILLE    FAIR      31  19  61 S10       30.02R WCI  22
6HR MIN TEMP:  30; 6HR MAX TEMP:  34;

ZIONSVILLE +   FAIR      31  23  73 SW13G20   29.98R WCI  21
6HR MIN TEMP:  31; 6HR MAX TEMP:  33;


$$

INZ033-034-041-042-049-050-058-059-201300-
EAST CENTRAL INDIANA

CITY           SKY/WX    TMP DP  RH WIND       PRES   REMARKS
MUNCIE         FAIR      34  22  61 SW14G24   29.96R WCI  25
6HR MIN TEMP:  34; 6HR MAX TEMP:  35;

RICHMOND +     FAIR      32  23  69 SW13      30.01S WCI  22

$$

INZ060-061-067>069-081>083-085>088-201300-
SOUTHWEST INDIANA

CITY           SKY/WX    TMP DP  RH WIND       PRES   REMARKS
EVANSVILLE     FAIR      34  20  56 SW8       30.10S WCI  27
6HR MIN TEMP:  29; 6HR MAX TEMP:  36;

HUNTINGBURG +  FAIR      33  19  56 S8        30.11R WCI  26
6HR MIN TEMP:  33; 6HR MAX TEMP:  36;

WASHINGTON +   FAIR      34  18  52 S14       30.07S WCI  25
6HR MIN TEMP:  32; 6HR MAX TEMP:  34;


$$

INZ062-063-066-070>080-084-089>092-201300-
SOUTH CENTRAL AND SOUTHEAST INDIANA

CITY           SKY/WX    TMP DP  RH WIND       PRES   REMARKS
BATESVILLE *+    N/A    N/A N/A N/A MISG        N/A
BEDFORD +      FAIR      36  19  51 SW13      30.06S WCI  27
BLOOMINGTON    FAIR      35  21  56 SW18      30.04R WCI  24
6HR MIN TEMP:  34; 6HR MAX TEMP:  37;

FRENCH LICK *+ FAIR      34  14  44 SW7       30.08S WCI  28
MADISON *+     FAIR      32  21  64 S6        30.10R WCI  26
NORTH VERNON + FAIR      28  18  64 S6        30.07S WCI  22
SEYMOUR +      FAIR      36  21  55 SW10      30.07S WCI  28

$$





USA.gov is the U.S. government's official web portal to all federal, state and local government web resources and services.